Theta_e
315 316 315 316 318 319 318 315 315 315 314 315 313 313 314 311 312 313 313 315 314 312 313 313 312 313 314 316 318 318 327 337 342 346 347 345 344 342 342 344 344 344 343 337 337 338 339 339 339 340 340 339 339 339 338 338 337 338 337 337 338 337 337 337 337 336 335 335 335 336 337 337 338 337 336 335 336 337 337 337 336 336 336 336 335 334
314 317 319 319 319 319 318 319 317 313 312 311 311 312 312 311 312 312 313 315 314 313 313 313 313 313 313 318 320 320 323 329 335 343 347 345 345 344 343 344 344 344 343 341 340 339 339 341 340 340 340 339 338 338 338 337 337 338 338 338 338 337 337 337 337 336 336 335 336 336 336 337 337 336 334 334 334 336 337 336 336 337 336 336 335 334
315 318 320 318 315 313 315 319 317 314 314 314 312 312 313 313 313 315 318 318 315 314 315 313 311 314 320 319 320 323 324 325 327 333 340 343 344 343 343 344 345 345 345 345 343 340 340 341 341 340 340 339 339 337 337 337 337 338 338 338 338 338 338 337 337 336 336 336 336 336 336 336 336 334 335 335 334 335 336 336 336 336 336 335 334 334
318 319 318 314 312 312 314 315 314 314 315 317 315 313 314 314 314 317 322 321 317 316 318 318 318 325 325 320 322 325 326 330 329 329 333 336 338 339 342 345 346 346 346 346 344 341 341 341 340 340 339 338 338 337 336 337 337 338 338 338 338 338 338 337 336 336 336 336 336 336 336 336 335 333 334 335 335 336 336 336 336 336 335 335 334 334
317 316 314 313 312 314 315 314 314 313 314 319 319 314 313 314 316 318 320 324 325 322 322 324 326 325 321 322 326 327 329 332 332 332 333 333 332 335 342 344 344 345 344 344 345 343 342 342 340 340 339 338 337 337 337 337 337 338 338 337 338 338 337 337 336 335 336 336 336 336 335 334 332 332 333 334 334 335 336 336 336 336 335 335 334 333
316 314 314 313 312 313 313 314 317 316 316 317 318 317 313 314 317 317 320 328 329 322 317 319 320 315 319 328 328 326 331 334 333 334 334 333 332 334 339 339 339 342 344 344 343 343 342 341 340 339 339 338 337 337 337 337 337 337 338 338 338 337 337 338 337 335 335 335 335 335 334 332 330 331 333 333 334 334 335 336 336 335 335 335 334 333
316 315 315 315 314 312 312 313 315 316 316 315 320 322 315 314 318 317 320 323 321 318 315 320 320 314 321 332 327 325 333 335 335 335 333 333 332 333 335 335 337 342 345 345 342 338 338 338 339 339 339 338 338 337 337 337 336 336 337 337 337 336 336 337 337 336 335 335 335 335 334 333 332 333 333 333 333 334 335 335 335 335 335 335 333 332
317 316 316 316 315 313 313 313 314 315 315 317 324 326 317 316 317 319 322 319 318 319 320 326 327 319 323 332 328 327 334 336 336 336 333 332 331 331 332 332 333 336 339 341 338 334 332 333 334 333 333 333 334 335 335 333 332 334 336 335 335 335 335 336 337 336 336 335 335 335 334 334 334 334 334 334 333 334 335 335 335 335 335 335 333 333
317 318 318 317 314 314 314 315 314 313 314 320 325 320 316 316 316 320 321 321 324 320 316 324 326 318 321 329 331 331 336 338 338 337 334 331 330 330 330 330 330 330 331 333 332 331 329 329 330 328 328 328 329 331 331 330 331 333 335 336 335 335 335 336 336 336 336 335 335 335 334 333 334 334 334 334 334 334 334 334 335 335 334 334 334 334
315 317 318 316 315 316 315 314 313 312 314 319 319 315 318 321 322 326 323 321 325 319 316 323 324 323 327 330 333 336 338 338 337 336 333 330 329 329 329 328 328 327 327 328 328 329 329 329 328 328 328 328 328 329 329 329 330 333 335 336 335 335 335 336 336 336 335 334 334 334 334 334 333 333 332 333 333 334 334 335 335 334 334 334 334 335
314 315 317 315 316 317 315 313 312 312 314 315 315 314 318 325 329 336 334 326 321 319 325 327 322 329 335 333 334 337 338 337 335 334 332 330 329 328 328 327 326 326 326 326 326 327 328 328 327 328 327 327 327 328 329 330 332 333 334 335 336 336 335 336 337 335 332 332 333 334 334 334 333 333 332 332 333 334 334 335 334 334 333 333 334 334
313 313 315 315 318 315 313 313 311 312 313 314 318 316 315 323 326 330 332 326 319 321 328 326 323 330 335 333 335 335 334 332 333 333 332 331 330 328 327 326 325 324 324 324 324 324 326 327 327 327 326 326 325 327 329 330 331 331 331 333 335 336 335 336 336 333 330 329 332 333 334 334 333 333 332 333 333 334 334 334 334 333 333 333 333 334
317 315 314 314 317 315 313 314 312 311 314 315 320 319 317 319 318 320 324 324 323 322 319 320 327 335 335 333 334 334 332 330 330 331 330 329 328 327 326 325 323 322 321 321 321 321 322 325 326 327 326 326 325 326 327 327 328 328 330 332 334 334 334 334 331 329 327 328 329 332 334 334 333 333 333 333 333 334 334 334 333 333 333 333 333 334
318 318 315 312 314 315 314 315 314 313 315 315 318 319 319 320 318 316 320 321 321 320 316 316 326 336 335 332 332 332 331 330 328 328 328 327 326 326 324 323 322 320 319 319 319 319 320 322 324 325 326 325 325 326 325 325 326 328 329 331 332 332 333 333 330 327 327 328 328 330 333 333 333 333 333 333 333 333 334 334 334 333 333 333 333 334
318 320 319 315 314 315 314 315 317 318 316 314 317 318 318 324 325 320 322 322 318 319 321 322 325 331 334 332 330 330 328 327 327 326 326 325 324 324 323 321 320 318 318 317 317 317 318 319 320 322 324 325 326 326 326 325 325 326 328 328 330 330 331 332 330 328 328 328 329 330 331 333 333 333 333 333 333 333 333 334 334 334 333 333 334 334
315 321 325 319 314 315 315 315 317 317 315 313 314 315 315 322 328 325 324 325 325 325 325 327 328 327 329 330 327 328 327 326 326 325 325 324 323 323 322 320 319 317 316 315 315 315 315 317 317 318 320 322 325 326 326 327 326 325 327 327 329 329 329 329 328 328 329 329 329 330 331 333 333 333 333 333 333 333 332 333 333 334 334 334 334 334
314 320 325 318 313 315 315 316 317 315 318 317 313 314 315 316 322 323 318 319 327 326 319 323 333 330 328 330 328 327 328 327 326 324 324 323 321 321 320 318 317 316 315 313 313 313 313 314 314 315 316 317 320 322 323 324 325 326 326 326 328 328 328 328 328 328 329 330 330 329 330 332 332 333 333 333 333 333 332 331 332 333 334 334 334 334
318 321 324 318 312 315 314 315 316 313 318 320 314 314 315 311 318 323 321 323 327 322 316 324 335 331 328 330 329 328 329 328 326 324 322 321 320 319 317 316 315 314 313 312 311 312 312 312 312 313 314 314 316 317 318 319 321 324 326 326 327 327 327 327 328 328 328 328 328 329 329 330 331 333 333 333 334 333 332 331 331 332 333 332 332 333
318 319 323 319 313 314 316 316 316 313 314 316 314 315 314 315 320 319 319 323 320 318 322 326 330 329 330 330 329 329 329 327 325 323 321 319 318 317 315 314 313 312 311 311 310 310 310 310 311 311 312 312 313 314 315 316 317 320 323 325 326 327 326 327 328 328 328 328 328 328 329 329 330 331 333 333 333 332 332 331 331 331 332 331 330 330
321 319 321 320 315 315 321 322 319 317 315 313 317 320 321 325 325 318 318 321 317 321 328 328 327 328 329 329 328 328 328 327 325 323 320 318 315 314 313 312 311 311 310 309 309 309 309 309 310 310 310 311 311 312 313 314 315 316 319 321 323 325 326 327 328 328 328 329 329 328 328 329 329 330 332 331 331 331 331 331 332 332 331 331 331 330
317 316 319 323 322 322 327 326 323 321 315 314 324 326 322 322 320 317 318 318 319 328 332 330 329 327 328 329 328 326 326 325 323 320 318 315 313 312 311 310 310 309 309 308 308 308 308 309 308 309 309 309 310 310 311 312 312 313 315 317 319 322 324 326 327 328 328 328 328 327 327 327 327 330 332 329 329 332 332 331 332 332 331 331 331 331
316 318 326 332 331 328 327 324 322 322 318 322 332 329 322 320 319 320 318 316 323 331 329 329 331 329 328 327 322 320 320 319 319 317 315 313 311 310 310 309 308 308 308 307 307 307 307 308 307 308 308 308 308 309 309 310 310 311 312 313 315 318 321 324 326 327 328 328 328 328 328 328 328 330 331 330 330 331 331 331 331 331 331 330 330 331
327 331 331 328 325 324 322 319 320 321 321 327 330 327 328 328 326 330 328 323 326 326 325 329 331 328 324 320 317 316 315 314 314 314 313 311 310 309 308 308 307 307 306 306 306 306 307 307 307 307 307 307 307 307 308 309 309 309 310 310 312 315 317 321 323 325 326 327 328 328 328 329 329 330 331 330 330 330 329 331 331 331 330 330 330 330
329 332 329 324 321 323 324 320 319 322 326 331 329 325 329 329 328 334 336 334 331 326 329 336 331 325 321 317 315 314 313 312 312 311 311 310 309 308 307 307 306 306 305 305 305 305 306 306 306 306 306 306 306 306 307 307 307 307 308 308 310 313 315 317 318 320 322 324 326 327 328 329 330 331 331 331 331 329 329 330 331 330 330 330 330 330
323 324 327 327 323 324 326 322 321 324 327 331 328 323 325 327 329 328 327 334 333 322 327 336 330 324 320 315 314 313 311 311 311 309 309 309 308 307 306 306 305 305 304 304 304 304 305 305 305 305 305 305 305 305 305 305 305 305 306 307 307 310 313 315 315 317 319 322 323 325 327 328 330 331 331 331 331 329 329 330 331 330 329 329 329 329
326 323 328 333 327 326 329 328 327 327 327 327 325 322 323 326 330 325 323 338 338 322 323 332 327 322 319 314 313 312 311 310 310 309 308 307 307 306 305 305 304 304 304 303 303 303 303 304 304 304 304 304 304 304 304 304 304 304 304 305 305 307 310 313 314 315 317 320 322 323 325 326 328 330 330 331 331 330 329 329 330 330 329 329 329 329
329 323 323 328 328 328 331 329 325 325 328 328 324 321 321 321 325 330 332 337 334 324 324 327 323 321 318 314 313 311 310 310 309 308 307 306 306 305 305 304 304 303 303 302 302 302 302 302 303 303 303 303 303 303 303 303 303 303 303 303 304 305 307 310 313 314 314 317 320 321 323 324 325 328 329 330 331 329 328 328 330 329 328 329 329 329
331 325 322 322 323 323 323 322 320 321 323 323 320 320 320 319 325 334 333 326 323 327 330 325 321 320 317 313 312 311 309 309 308 307 307 306 305 305 304 304 303 302 302 302 301 301 301 301 302 302 302 302 302 302 302 302 302 302 302 302 304 305 306 308 311 312 313 314 316 318 319 321 324 326 327 329 329 328 328 328 328 328 328 329 329 329
330 326 322 320 320 319 318 318 318 318 318 317 317 319 319 319 323 327 323 319 321 329 330 323 318 317 314 312 310 309 309 308 307 306 306 305 305 304 304 303 303 302 302 301 301 301 300 300 301 301 301 301 301 301 301 301 301 301 301 302 303 304 305 306 308 310 311 313 314 315 316 319 322 325 326 328 328 327 327 326 327 328 328 328 327 327
327 323 320 319 319 318 317 317 317 316 316 316 315 316 317 317 318 318 318 317 318 321 321 317 314 313 311 310 309 308 307 306 306 306 305 304 304 303 303 303 302 302 301 301 300 300 300 300 300 300 300 300 300 300 300 301 301 301 301 301 302 303 304 305 305 307 309 310 312 314 315 317 320 324 326 327 327 327 327 326 326 327 326 326 325 325
323 322 319 318 319 318 316 316 316 315 316 315 314 315 315 316 316 316 316 316 315 315 313 312 312 311 309 308 307 307 306 306 305 305 304 303 303 303 303 302 301 301 301 300 300 300 299 300 300 300 300 300 300 300 300 300 301 301 301 301 301 302 303 304 304 305 306 307 310 312 314 315 318 322 325 326 326 327 326 326 326 326 325 326 325 324
325 323 320 319 320 319 316 315 316 316 316 316 315 314 314 314 315 314 314 315 315 315 314 314 313 311 308 307 307 306 306 305 305 304 303 303 302 302 302 301 301 301 300 300 300 299 299 300 300 299 299 300 300 300 300 300 301 301 301 301 301 302 302 303 304 304 305 305 307 310 312 313 316 321 324 325 326 326 326 326 325 325 325 325 324 323
324 321 320 320 321 319 317 317 318 320 323 321 316 314 313 313 313 313 312 312 313 314 316 316 313 309 308 307 306 306 305 304 304 303 303 302 301 301 301 300 300 300 299 299 299 299 299 299 299 299 299 299 299 300 300 300 300 301 301 301 301 302 303 303 303 304 304 305 306 308 310 311 313 317 322 325 325 325 325 325 325 324 324 323 322 322
319 320 321 322 320 318 316 317 319 323 325 320 313 312 313 312 312 313 312 310 310 311 312 311 309 308 307 306 305 304 303 303 302 301 301 301 301 301 300 300 300 299 298 298 298 298 298 298 298 298 299 299 299 299 300 300 300 301 301 301 302 302 302 303 303 303 304 304 304 306 309 311 311 313 318 323 324 325 325 324 324 323 322 321 320 319
319 321 321 320 319 318 316 317 320 322 319 313 310 310 310 310 309 310 310 309 309 308 308 308 307 306 305 304 303 302 301 301 301 301 301 301 301 300 300 300 299 299 298 298 298 298 298 298 298 298 299 299 299 299 300 300 300 301 301 301 301 302 302 302 303 303 303 304 304 304 307 309 310 310 313 317 320 322 323 322 320 319 318 317 316 315
319 321 320 318 318 319 318 319 320 318 313 311 310 309 310 310 310 311 311 309 309 308 307 307 306 305 304 303 302 301 301 301 301 301 301 301 301 301 300 300 300 299 299 299 298 298 298 298 298 298 299 299 299 299 299 300 300 300 301 301 301 301 302 302 302 302 302 303 304 304 305 307 309 308 309 313 314 314 316 316 316 314 312 311 311 310
320 320 319 318 317 317 318 317 316 315 313 312 312 311 311 312 312 312 311 309 308 308 307 306 306 304 303 302 302 301 301 301 301 301 301 301 300 300 299 299 299 299 299 299 299 298 298 298 298 298 298 298 298 299 299 299 300 300 300 301 301 301 301 301 301 302 302 302 303 303 304 306 308 307 307 309 310 308 309 310 310 309 309 307 306 306
319 320 320 320 317 315 316 315 314 316 316 314 312 311 311 311 312 311 311 310 307 307 307 306 305 304 303 302 302 302 302 303 302 301 301 301 301 300 300 300 299 299 299 299 299 299 299 299 299 299 298 298 298 298 299 299 299 299 300 300 300 300 300 301 301 301 301 302 302 303 303 304 306 307 306 306 307 306 305 305 306 305 306 305 303 302
314 316 318 320 317 315 316 316 316 316 315 313 312 310 309 312 312 311 313 312 307 305 307 306 305 304 303 302 302 303 305 305 302 301 301 300 300 300 300 300 300 300 300 299 299 299 299 299 299 299 299 298 298 298 298 299 299 299 299 299 299 299 299 299 300 300 300 301 302 303 303 303 305 307 306 305 305 306 304 303 303 303 303 303 301 301
317 317 317 318 316 316 315 314 314 314 312 310 310 309 310 311 311 313 317 314 306 303 305 305 305 304 303 303 304 304 305 304 302 301 300 300 300 300 300 300 300 300 300 300 299 299 299 299 300 300 299 299 298 298 298 298 299 299 299 299 299 299 299 299 299 299 300 301 302 302 303 303 303 305 306 306 305 304 304 302 301 301 301 301 301 301
316 316 315 315 315 314 313 312 311 311 309 309 309 309 310 311 312 315 316 310 303 302 302 302 302 302 302 303 303 303 303 302 301 300 300 300 300 300 300 300 300 300 300 300 299 300 300 300 300 300 300 300 299 299 299 299 299 299 299 299 299 299 299 299 299 299 300 300 301 302 302 302 303 304 305 306 305 304 303 302 301 301 301 300 300 300
315 314 314 314 313 310 309 310 311 311 309 308 309 308 309 313 314 312 308 304 302 302 301 300 301 301 301 301 301 301 301 300 300 300 300 300 300 300 300 300 299 299 299 299 299 299 299 300 300 299 300 300 300 300 300 299 300 299 299 299 299 300 300 300 299 299 299 299 300 301 302 302 302 302 303 305 306 305 304 303 302 301 301 300 300 300
311 312 313 312 310 309 310 311 314 314 309 306 309 309 309 311 310 305 302 302 302 301 301 301 300 300 300 300 300 300 300 299 300 300 300 300 300 300 300 300 299 299 299 299 299 299 299 299 300 299 299 299 299 300 300 300 300 300 299 299 300 300 300 300 300 299 299 299 299 299 300 301 302 302 302 304 306 306 305 303 302 302 302 301 300 300
308 310 310 308 307 309 311 312 312 311 307 305 308 309 306 305 304 302 301 302 301 301 301 301 300 300 300 300 300 300 300 300 300 300 300 300 300 300 300 299 299 299 299 299 299 299 299 299 299 299 299 299 299 300 300 300 300 300 300 299 299 300 300 300 300 300 299 299 299 299 299 300 301 302 302 303 304 305 305 304 303 303 302 302 301 301
308 308 308 307 306 306 308 308 307 306 304 304 304 304 303 302 302 301 301 301 301 301 301 300 300 301 300 300 300 300 300 300 300 301 301 300 300 300 299 299 299 299 299 299 299 299 299 299 299 299 299 299 299 299 299 299 300 300 300 299 299 299 300 299 299 300 300 299 299 299 299 299 300 300 301 302 303 304 304 305 304 304 303 302 302 301
307 307 307 307 306 306 306 305 304 304 304 303 302 302 302 302 302 301 301 301 301 301 301 301 301 301 301 300 300 300 300 301 300 300 301 300 299 300 299 299 299 300 299 299 299 299 299 299 299 299 299 299 299 299 299 299 300 300 300 300 299 299 299 300 299 299 300 300 299 298 298 299 299 299 300 301 302 303 303 303 303 303 303 303 302 302
307 308 308 307 307 307 306 305 304 304 303 303 303 302 302 302 301 301 301 301 301 301 301 301 300 300 301 301 301 301 301 301 301 301 301 300 299 299 299 299 300 300 300 300 300 300 299 299 299 299 299 299 299 299 299 299 299 299 299 299 299 299 299 299 300 299 299 300 300 299 298 298 298 299 299 299 300 301 301 302 302 302 302 302 302 302
307 306 307 306 306 307 306 305 303 303 302 302 302 302 302 302 301 301 300 300 300 300 300 300 300 300 300 300 300 301 301 301 301 302 301 300 299 299 299 299 300 300 300 300 300 300 300 299 299 299 299 299 299 299 299 299 299 299 299 298 299 299 298 298 299 299 299 300 300 300 299 298 298 298 298 298 298 299 299 299 300 300 301 301 301 301
307 307 306 305 305 306 305 304 303 302 302 302 302 302 302 301 300 300 300 300 300 300 300 300 299 299 300 299 297 299 302 301 298 299 300 299 299 300 300 300 300 300 300 300 300 300 300 300 300 299 299 299 299 299 299 299 299 299 299 299 299 299 298 298 298 299 299 299 300 300 299 298 298 298 297 297 297 297 297 297 298 298 298 299 299 300
306 306 304 304 305 305 305 303 302 302 302 302 302 302 302 301 300 300 300 300 301 301 300 301 300 298 298 299 297 298 300 299 298 298 299 299 299 300 299 299 299 299 299 300 299 300 300 300 300 300 299 299 299 299 299 299 299 299 299 299 299 299 298 298 298 299 299 299 299 300 300 299 298 297 297 297 296 296 296 296 297 297 297 297 297 297
306 305 305 305 305 304 304 303 302 302 302 302 302 302 301 300 300 300 301 301 300 299 298 300 301 300 299 298 298 298 298 298 298 299 299 298 299 298 298 298 298 298 298 298 298 298 299 299 299 299 300 300 299 299 299 299 299 298 298 299 299 298 298 297 297 298 299 299 299 299 300 300 299 298 297 297 296 296 296 296 296 297 297 297 297 296
Wind_Speed
3 4 3 5 6 6 6 7 7 5 6 5 2 1 1 2 4 5 4 6 3 4 7 9 9 9 9 6 7 7 6 3 2 7 7 6 5 4 5 6 8 8 5 7 13 19 21 21 22 23 23 24 23 22 23 22 22 23 24 25 27 28 30 31 28 27 27 25 23 22 23 24 23 23 23 23 23 24 24 25 25 26 26 25 25 26
3 5 6 7 9 8 7 7 6 4 5 2 1 1 3 2 4 6 4 7 2 5 4 4 7 9 5 5 9 7 7 7 4 3 6 7 7 6 6 7 6 3 1 4 9 13 16 17 19 22 22 23 22 21 22 23 24 24 25 26 29 30 31 31 28 28 28 25 24 24 25 26 24 21 21 21 22 22 22 23 24 25 25 24 24 25
1 4 8 8 7 5 4 4 5 4 4 3 2 2 3 2 4 6 4 6 1 4 3 2 6 8 2 7 7 8 8 7 7 3 2 2 4 4 5 5 4 3 2 4 6 10 14 16 19 21 21 23 22 21 23 24 25 25 25 27 30 32 31 29 28 27 26 24 22 23 25 26 23 20 21 20 19 19 19 21 24 25 25 24 23 24
2 4 8 7 6 6 3 2 6 4 3 3 3 3 3 2 1 3 4 6 4 1 2 6 5 3 5 6 6 9 7 8 10 8 8 6 4 5 3 3 5 5 5 6 6 7 11 15 17 18 18 20 20 20 22 24 26 26 28 31 33 33 30 28 27 26 25 23 21 22 23 24 21 19 20 19 17 18 19 21 24 25 24 23 24 25
5 5 4 7 7 7 5 2 6 5 1 1 4 5 3 3 3 4 4 5 5 5 3 7 4 5 6 6 7 8 8 11 12 12 13 11 9 8 5 2 3 5 4 7 6 5 6 9 12 12 13 15 17 20 23 25 27 29 31 33 33 31 29 29 29 26 25 24 23 20 18 19 19 18 18 18 17 19 21 22 24 24 22 22 24 26
8 5 4 7 5 6 6 4 5 7 3 2 4 8 8 6 5 4 3 4 5 5 4 6 5 2 4 6 6 6 9 11 11 13 14 12 12 11 9 7 3 2 1 2 3 3 3 3 3 5 10 15 17 20 24 26 28 29 30 32 32 30 29 31 30 28 27 27 26 24 21 20 21 20 20 21 22 23 23 23 24 23 22 22 24 26
4 4 5 7 6 6 6 5 5 7 5 1 5 9 8 6 5 3 2 4 3 1 2 4 6 2 4 6 8 7 7 9 11 14 14 12 12 11 9 9 7 5 4 4 6 6 7 7 5 1 7 12 16 23 25 23 23 23 22 23 23 22 24 29 30 28 28 27 26 26 25 24 24 25 25 26 25 25 23 22 22 21 22 23 24 26
3 5 5 6 6 6 5 4 6 8 7 3 7 7 7 6 7 5 5 4 2 3 3 4 4 4 3 4 7 7 4 8 12 14 14 12 12 12 11 11 10 9 7 6 6 7 8 8 9 10 9 12 9 9 12 7 4 5 7 10 13 14 17 23 27 28 28 27 27 26 25 25 26 27 26 27 26 25 23 22 22 21 22 23 25 27
3 6 7 7 5 4 5 6 8 10 6 7 7 6 7 7 7 5 6 4 0 2 2 6 3 5 3 4 6 7 5 9 11 11 12 12 12 12 12 12 12 11 10 10 9 9 9 9 12 14 16 24 24 13 9 6 2 4 9 13 16 17 19 23 25 27 29 29 28 27 26 26 27 26 24 25 25 24 23 23 22 22 23 25 26 27
2 6 8 7 5 5 7 7 10 12 6 6 5 5 4 4 4 4 5 4 3 4 3 7 1 5 2 5 5 5 4 7 7 8 10 11 12 12 12 12 12 11 11 11 10 10 10 10 13 15 15 17 17 12 7 9 10 13 18 20 19 19 21 24 25 27 29 30 29 28 28 27 26 23 20 22 23 23 22 23 23 23 23 25 26 25
3 2 4 5 5 7 7 5 10 14 9 4 6 5 5 5 5 4 3 4 4 1 5 7 1 5 1 3 3 2 4 5 5 6 8 10 13 13 12 12 12 11 10 10 11 11 13 13 14 15 16 15 10 6 8 15 17 19 21 20 21 22 22 25 27 29 30 29 28 28 29 28 25 22 20 20 21 22 22 23 23 21 21 23 26 25
5 2 2 3 6 5 4 4 6 9 6 5 5 4 4 3 4 4 4 4 4 2 6 4 3 6 3 2 2 3 6 6 5 6 8 11 12 11 11 12 12 11 11 11 11 12 12 12 13 15 16 14 7 2 6 14 17 19 20 18 21 24 25 26 25 24 25 24 25 27 28 27 24 21 21 20 20 22 22 22 20 20 22 24 26 25
4 3 3 4 5 5 5 3 2 2 4 5 4 5 5 1 2 0 2 0 3 2 3 3 2 5 2 1 2 5 7 6 6 7 8 10 10 10 11 11 11 11 11 11 10 10 10 9 11 12 13 12 7 4 2 6 6 7 12 14 16 19 20 20 15 13 16 17 19 22 25 26 23 21 21 21 21 22 22 22 21 21 23 25 25 25
3 5 4 2 4 4 7 5 3 3 3 5 5 5 5 3 2 2 2 1 2 2 3 4 0 2 1 0 2 5 6 5 7 8 8 10 10 9 10 10 11 12 11 10 9 10 9 10 12 12 11 11 10 9 7 6 5 4 7 8 7 9 13 16 16 16 15 15 18 21 23 25 23 22 23 23 23 23 22 22 23 24 24 25 26 27
2 3 3 4 3 3 8 7 7 7 4 4 5 6 6 5 4 3 3 3 3 2 1 2 1 2 2 1 4 6 6 7 8 8 9 9 8 6 7 10 11 12 11 10 10 10 11 12 15 16 15 13 10 11 12 10 8 8 10 10 8 8 12 17 20 22 21 18 21 25 24 25 23 23 24 25 24 24 24 23 23 25 26 26 27 28
5 4 7 4 2 5 8 5 6 8 3 1 2 6 3 5 6 3 3 5 5 3 2 3 2 1 2 3 5 5 7 8 8 9 9 9 9 7 7 9 9 9 9 10 9 10 13 16 17 18 19 19 15 14 15 15 12 10 12 11 11 11 10 13 18 22 25 25 28 28 26 25 24 23 24 24 23 24 24 23 24 25 27 28 28 27
4 3 7 3 2 4 7 6 4 5 4 1 2 4 3 4 8 5 2 1 3 4 1 1 3 2 1 3 4 4 7 8 7 8 9 9 10 10 9 9 9 8 8 9 9 9 12 16 18 18 19 22 22 21 21 21 18 13 11 12 12 11 9 11 18 23 26 25 26 25 24 24 24 24 25 25 24 24 23 21 22 24 25 28 29 27
4 2 6 2 4 4 2 4 2 2 5 4 3 5 2 3 5 4 2 2 4 4 1 2 3 3 1 1 1 4 7 7 7 8 8 9 10 10 9 10 11 11 10 10 11 11 14 17 19 19 20 23 24 24 25 24 23 19 13 10 12 13 11 12 16 20 21 17 14 15 18 21 23 24 26 26 24 24 22 19 19 21 21 21 23 26
3 0 6 3 3 2 4 6 3 4 3 5 4 3 4 3 1 1 3 2 2 3 0 3 2 1 1 1 0 2 4 6 6 7 8 9 9 8 9 10 11 11 10 11 12 12 14 17 19 20 21 24 26 26 25 24 24 23 19 14 12 12 11 11 13 16 17 14 13 15 18 22 25 26 28 27 23 20 19 19 19 21 20 17 17 19
3 3 4 5 3 1 4 4 2 3 3 3 3 3 2 3 4 2 2 3 4 3 2 2 1 1 1 1 1 2 3 6 7 6 8 8 8 8 8 9 9 9 9 10 11 11 13 16 18 19 19 22 24 24 24 25 25 23 22 20 17 13 10 9 10 12 15 16 17 17 18 22 25 28 29 26 21 19 20 20 21 23 24 21 19 19
2 3 1 5 6 1 1 1 4 6 3 2 4 3 2 2 2 2 1 2 4 4 4 3 1 2 2 1 3 4 4 7 8 7 7 7 8 8 7 8 9 9 9 10 10 11 12 15 17 18 19 22 23 24 25 26 25 24 24 22 21 18 14 12 9 10 13 15 15 15 16 20 23 27 28 20 18 23 23 19 19 21 22 21 22 23
2 2 2 2 4 4 1 4 2 5 6 4 3 3 2 2 3 4 1 1 3 4 4 5 3 2 1 2 6 7 7 8 9 8 7 7 7 7 7 8 9 9 9 10 10 10 12 14 16 18 21 23 23 23 25 26 25 25 25 23 21 20 17 13 11 10 12 12 13 13 14 16 19 25 25 17 17 22 20 16 16 18 20 20 22 25
3 4 4 2 2 2 2 5 2 6 9 7 4 3 3 2 4 5 4 3 3 3 2 4 3 1 3 5 7 8 7 8 8 7 6 5 6 6 7 8 9 9 9 10 10 11 12 14 15 16 19 21 21 22 23 25 25 25 26 26 25 24 21 17 14 13 14 14 15 14 14 14 16 20 22 19 19 20 17 18 19 19 21 23 24 27
3 4 4 2 2 2 4 5 3 7 8 7 5 3 2 2 2 5 5 4 4 2 2 4 2 2 3 4 6 8 8 8 7 6 6 4 4 6 7 7 8 9 10 10 10 11 12 13 14 15 16 18 19 20 21 23 24 26 28 29 28 28 26 24 22 19 18 18 18 17 16 15 15 17 20 21 21 21 20 20 22 22 24 25 26 27
1 2 3 3 2 3 4 4 4 6 5 4 3 4 3 3 3 4 2 3 3 2 3 5 2 2 3 4 6 7 8 9 7 6 6 5 5 6 6 7 7 8 9 10 9 10 11 12 13 14 15 16 17 18 19 21 24 27 29 30 30 29 29 29 28 24 21 20 18 17 17 16 15 16 19 21 22 22 23 23 23 23 25 26 26 27
3 2 3 5 5 3 2 2 1 1 3 3 3 6 6 4 3 3 3 4 2 1 3 4 3 4 5 5 7 6 7 8 7 7 7 6 7 7 6 7 7 7 8 10 9 9 9 10 12 14 15 16 17 18 18 20 22 25 26 28 30 29 29 31 31 27 24 21 18 17 16 16 15 14 18 21 22 21 22 25 25 24 25 27 28 27
4 3 3 5 5 5 5 3 3 3 4 3 4 8 7 4 3 3 4 2 4 4 3 1 6 9 7 6 6 6 7 7 6 7 7 6 6 6 6 7 7 7 7 8 8 8 9 10 12 15 16 16 17 18 18 20 22 24 25 27 29 29 29 30 30 29 27 24 20 18 17 16 15 14 16 20 20 20 21 25 27 26 26 29 29 28
6 3 4 7 8 4 4 5 5 7 8 5 4 7 7 6 6 6 5 2 3 5 2 2 8 9 6 6 6 5 5 5 6 6 5 5 5 6 6 8 10 10 9 9 9 10 10 10 12 15 17 17 18 19 19 20 21 24 26 27 28 29 29 29 29 29 29 27 24 22 20 17 15 14 15 17 19 19 20 23 26 27 27 29 30 30
7 3 3 7 11 9 7 8 10 11 10 9 8 8 8 9 10 9 5 3 3 4 4 8 10 8 6 6 6 5 5 6 6 6 5 4 6 7 8 10 11 11 12 12 13 13 13 12 13 15 16 17 19 21 20 20 21 23 25 27 29 29 29 29 29 29 29 29 27 26 24 20 15 14 14 15 18 19 20 22 25 26 27 28 28 29
5 3 2 8 11 10 8 7 9 12 11 10 11 10 9 10 12 11 9 8 9 8 7 12 13 8 5 5 5 5 6 6 5 5 6 6 7 8 9 10 10 11 12 13 13 13 13 14 16 17 18 19 22 23 23 22 23 24 25 26 28 29 29 28 28 28 29 29 29 28 26 23 17 13 13 14 19 22 22 25 26 25 26 28 28 28
4 3 2 4 8 7 6 7 9 11 13 12 11 9 8 8 9 9 7 8 11 10 9 12 12 7 4 5 6 6 5 5 6 6 7 7 7 8 9 10 10 10 11 12 12 12 12 14 17 18 19 21 24 25 25 25 25 26 27 29 29 29 29 28 28 28 28 29 29 28 27 26 19 12 14 15 20 24 25 27 29 28 29 31 30 29
4 4 2 2 5 3 2 6 9 11 13 12 10 9 8 7 5 5 5 5 6 8 10 9 6 4 4 5 6 6 5 6 7 7 7 6 7 7 9 9 9 9 10 10 10 11 11 13 16 17 19 21 24 25 26 26 26 27 29 30 30 30 30 30 30 30 30 30 31 30 29 26 20 12 14 17 20 26 28 29 31 33 33 32 31 30
4 6 3 2 5 3 3 2 2 4 7 6 5 4 4 4 4 5 6 8 6 3 5 5 3 4 5 6 6 7 7 8 7 7 6 5 6 7 8 8 8 8 8 8 8 9 10 12 14 16 18 20 22 24 25 24 25 26 26 27 28 30 31 31 32 32 32 32 32 32 31 27 22 14 10 18 22 26 29 31 34 35 33 30 30 31
5 6 4 2 4 4 3 2 3 2 2 1 2 2 1 3 6 8 7 8 8 6 5 6 6 7 6 6 7 8 7 7 7 7 6 5 5 6 7 7 7 7 7 7 8 9 11 13 14 16 18 19 21 22 23 23 23 24 25 25 27 29 30 31 32 32 33 33 33 32 32 29 25 19 9 12 21 27 30 30 32 33 30 30 32 32
5 5 3 2 4 4 2 2 3 1 0 1 3 4 5 7 9 12 10 9 9 9 9 9 9 8 8 7 8 8 8 8 8 8 7 6 5 5 6 6 7 7 6 6 7 9 12 14 15 16 18 19 20 21 22 23 23 24 25 26 27 28 29 30 31 32 33 34 34 33 32 30 27 25 18 5 8 19 27 29 28 29 29 30 32 32
6 4 3 3 2 3 2 2 2 3 2 4 5 4 5 4 5 8 8 8 7 6 8 9 9 9 9 8 7 8 8 7 7 8 7 7 6 5 5 5 6 6 6 8 9 11 13 14 16 17 18 19 21 22 23 23 23 24 25 26 26 27 29 31 32 33 33 33 34 33 31 29 29 29 24 15 7 2 16 28 29 28 28 28 29 30
7 5 4 3 2 2 3 2 3 4 3 4 3 2 2 1 1 2 4 4 5 4 5 9 9 9 9 8 7 7 6 5 6 6 6 6 6 6 6 7 7 8 10 12 13 14 16 17 17 18 18 19 21 22 23 23 24 24 25 27 27 28 30 31 32 32 32 33 33 32 31 29 29 30 29 23 17 13 7 21 29 26 27 27 26 28
7 5 5 3 1 1 4 4 3 2 2 2 2 1 1 2 2 3 4 3 2 4 3 9 10 8 8 8 7 7 4 3 5 4 4 6 6 6 7 9 11 12 13 15 16 17 18 19 18 19 19 20 22 23 22 23 24 25 26 27 27 28 29 30 30 31 31 32 32 31 30 29 28 29 31 29 24 19 13 16 25 27 28 28 25 26
10 5 5 6 3 2 4 3 2 2 1 1 2 1 3 3 2 3 3 2 1 4 3 7 9 8 8 8 7 5 2 2 3 2 2 4 5 6 7 9 12 14 15 16 16 16 18 18 19 20 21 23 23 23 22 22 24 25 26 26 26 28 29 29 29 29 29 30 31 30 29 28 28 30 30 31 28 23 17 17 23 27 29 28 26 27
8 5 4 5 4 3 3 2 1 1 1 0 1 2 4 3 1 2 1 1 2 3 4 5 7 6 6 6 5 2 0 2 4 3 2 3 5 7 8 8 11 13 15 16 16 16 17 18 19 21 22 23 23 22 22 23 23 24 24 24 25 26 27 27 27 27 28 28 29 30 30 28 27 29 30 30 30 27 21 20 24 28 30 29 27 29
4 4 3 4 4 4 4 2 1 0 1 1 1 3 4 2 0 1 1 2 3 4 4 5 5 3 3 3 3 1 2 4 5 4 3 4 5 7 8 9 11 12 14 16 17 17 17 18 19 20 21 20 20 21 22 23 23 23 23 24 25 25 24 24 25 25 27 28 29 29 29 29 27 27 29 29 29 28 24 22 24 28 30 30 29 30
2 3 2 2 3 3 3 2 1 1 0 0 1 3 3 0 1 2 2 3 4 5 5 6 6 5 5 5 5 5 6 7 7 5 4 4 4 5 7 10 11 12 13 14 16 17 17 18 19 21 21 20 19 19 20 21 21 21 21 22 23 23 23 24 24 23 24 26 28 28 28 28 27 27 28 29 29 28 25 23 25 29 31 31 31 31
2 2 2 1 2 2 3 2 2 2 1 0 1 2 2 1 2 3 5 6 6 6 7 6 6 6 7 8 8 8 8 7 6 5 4 4 4 4 6 8 8 9 10 12 14 16 16 17 19 20 20 20 19 18 18 19 20 20 20 20 20 20 22 23 23 22 22 23 24 25 26 26 26 26 28 28 29 29 25 23 24 28 30 30 30 30
1 1 2 2 1 1 2 2 1 0 1 1 1 2 2 2 4 6 6 6 6 6 6 6 6 6 8 9 9 8 8 7 5 4 4 3 3 4 6 7 8 9 9 10 12 13 15 16 17 18 19 19 19 20 19 19 19 18 18 19 19 19 21 21 21 21 22 22 21 21 23 24 25 25 26 27 28 28 25 23 23 25 27 28 28 28
0 2 3 3 2 3 3 2 2 3 3 4 5 5 6 6 6 6 7 7 6 5 5 6 7 6 7 8 8 7 6 6 5 4 3 3 3 3 4 5 5 6 7 8 9 11 12 13 14 16 17 17 18 20 20 20 18 17 17 17 18 19 21 21 21 20 20 21 22 20 19 21 23 25 26 26 27 27 25 23 23 24 25 25 25 24
2 3 3 4 5 6 6 5 5 6 7 8 7 7 7 8 6 6 7 6 5 5 5 5 6 6 5 6 6 6 5 5 4 3 3 3 2 2 2 2 3 4 5 6 8 9 10 10 11 13 14 15 16 18 19 19 17 15 15 15 17 19 20 21 22 21 18 17 19 20 20 19 20 22 24 26 26 26 24 21 21 22 22 21 21 21
1 2 3 4 4 3 4 5 6 7 8 8 8 7 7 7 6 5 6 6 6 6 6 5 6 7 6 6 6 6 5 5 5 4 2 2 2 1 0 1 3 4 5 6 7 8 8 8 9 10 11 13 14 15 17 18 17 15 15 15 16 18 19 19 20 22 19 16 14 16 19 19 18 19 21 23 24 24 23 21 19 19 18 17 16 16
0 2 4 4 4 4 5 6 7 8 7 6 6 6 6 6 7 6 6 7 7 7 8 9 9 7 6 6 6 6 5 5 5 4 3 2 3 2 2 4 5 5 6 7 7 8 9 9 10 10 10 10 11 12 14 15 15 15 16 17 17 18 18 17 17 18 19 18 15 12 13 16 17 18 18 19 20 21 22 21 19 18 16 14 12 12
2 3 3 5 6 7 7 8 8 8 7 5 4 4 4 5 7 7 7 8 8 7 7 7 8 7 7 7 7 7 5 4 5 6 4 4 4 4 4 4 5 6 7 7 8 8 10 10 11 12 12 10 10 10 12 13 12 13 15 17 18 17 17 16 16 16 16 17 16 13 11 11 13 15 15 16 17 18 18 17 16 16 15 14 12 11
4 4 5 7 7 4 4 7 7 7 6 4 4 5 5 5 7 8 7 7 7 6 6 5 5 6 7 9 10 9 6 4 5 6 5 5 4 4 4 4 5 6 7 7 8 10 11 11 12 12 13 12 11 10 12 13 12 11 14 16 17 17 16 16 16 15 13 13 14 13 10 9 10 11 11 13 14 15 16 15 14 13 12 12 11 10
4 5 5 5 5 5 7 8 5 5 6 5 5 6 5 5 7 8 8 7 6 7 8 7 5 5 4 5 8 9 8 7 7 6 5 4 3 3 4 5 6 8 9 10 11 12 13 12 12 12 12 12 11 11 12 14 13 11 13 15 15 15 15 16 16 16 13 11 12 12 11 9 8 7 8 9 10 12 13 13 13 12 11 10 10 9
Wind_Direction
143 159 188 185 194 196 194 181 177 172 141 146 138 113 218 261 285 275 264 277 233 184 245 230 223 243 252 290 332 342 7 353 190 145 171 195 183 194 196 200 207 208 203 192 200 203 200 197 195 196 197 198 198 198 198 196 196 195 193 194 200 207 209 207 202 198 200 198 195 197 203 207 209 215 220 218 215 212 212 216 216 215 213 210 207 207
122 178 215 210 201 193 186 182 178 147 114 120 157 267 295 246 261 269 260 286 232 162 255 223 204 246 255 24 5 356 22 4 330 185 192 200 192 194 196 206 209 212 191 168 189 198 194 192 192 194 196 195 193 192 193 193 193 193 192 196 204 209 210 207 201 198 201 199 196 199 204 207 205 210 216 216 217 216 213 214 213 213 213 211 208 207
129 215 232 219 193 157 142 153 148 127 118 108 122 189 276 254 274 289 275 290 284 149 259 165 173 244 305 58 31 18 33 10 350 343 303 263 228 230 215 200 176 180 217 197 193 192 189 189 189 191 194 196 194 190 189 191 191 189 190 199 208 211 209 206 203 201 200 200 199 204 212 213 209 211 214 211 214 217 215 213 212 213 212 211 209 207
164 245 232 195 143 137 160 137 118 109 102 110 138 186 243 238 280 291 280 302 334 61 180 140 150 291 2 44 36 23 27 24 18 24 25 17 353 323 283 173 160 181 203 213 209 194 190 188 186 189 191 194 193 187 187 188 187 186 191 201 209 211 206 204 205 202 199 198 199 204 213 218 218 222 222 213 208 212 213 211 212 213 211 211 210 206
212 244 193 138 137 160 184 171 133 137 221 235 197 201 209 197 209 235 273 315 341 359 66 102 69 1 7 23 23 7 13 27 21 25 29 22 11 2 358 5 183 182 204 225 225 209 197 186 181 184 187 189 192 192 190 188 187 189 195 203 208 208 205 206 206 201 197 198 198 197 198 202 206 215 219 213 210 213 214 211 211 211 208 209 210 207
236 239 120 120 148 163 172 199 172 160 186 279 234 218 211 203 218 240 306 4 28 3 11 85 83 355 332 12 26 1 10 22 19 26 28 19 16 18 8 351 344 73 29 297 324 350 7 38 127 175 186 189 194 196 194 191 191 193 198 205 208 205 204 207 208 203 201 202 199 194 189 186 189 197 204 205 210 215 214 212 211 208 204 206 210 210
236 197 142 144 157 162 176 215 211 163 145 256 237 218 208 189 189 183 78 55 72 307 331 74 117 170 318 360 10 356 8 19 25 33 28 24 24 23 20 10 15 32 34 44 41 38 34 32 35 302 214 206 208 203 195 192 194 197 201 207 209 207 206 208 209 207 206 205 201 199 199 197 195 199 203 204 210 216 216 214 210 205 203 206 209 210
183 159 161 161 151 161 181 215 212 159 131 227 240 199 176 169 175 160 105 96 178 222 326 10 102 116 332 332 348 345 12 27 32 36 28 29 28 25 28 27 29 28 29 53 56 49 30 12 19 18 6 358 330 221 182 155 163 210 215 212 217 218 214 214 215 215 213 209 205 204 203 204 205 206 207 206 210 215 216 214 209 206 205 208 211 212
167 161 181 175 156 170 196 203 185 152 146 240 232 172 166 170 162 142 108 106 105 92 319 315 49 89 300 293 342 349 25 31 28 33 28 27 27 27 29 29 33 32 32 41 46 49 28 7 24 33 27 18 15 33 82 92 111 232 228 216 219 222 219 219 221 222 221 216 210 207 206 207 210 210 208 207 208 211 212 212 209 208 209 210 212 214
204 187 180 161 158 197 216 196 161 158 188 236 189 122 93 89 95 96 105 115 53 66 222 270 32 104 268 311 351 350 23 22 15 29 28 25 27 30 29 29 32 30 32 37 39 49 41 28 37 41 41 34 30 52 116 177 198 221 227 219 216 221 220 221 225 227 227 222 214 209 209 210 211 211 209 207 205 207 209 210 209 208 210 211 212 213
278 225 164 155 182 206 212 177 159 178 189 157 129 96 51 42 47 50 66 96 84 35 250 259 49 101 146 313 335 354 30 10 5 30 27 28 32 34 33 33 33 30 29 30 31 38 37 34 37 37 44 51 48 72 154 186 202 218 224 219 215 218 220 221 227 230 229 225 219 214 213 213 212 212 211 207 204 206 208 208 206 203 204 211 213 212
325 336 199 224 214 193 169 148 167 189 171 108 118 111 84 15 20 29 0 50 103 241 259 249 83 85 109 253 312 49 50 24 23 38 33 36 38 37 39 37 34 31 27 26 26 27 27 29 29 29 41 53 55 73 173 195 208 217 222 225 222 221 221 222 228 236 238 233 225 220 218 216 213 213 214 212 209 210 211 210 206 203 206 213 214 210
314 243 262 289 237 175 139 144 143 132 100 101 108 97 103 22 21 52 299 80 151 232 236 208 88 68 75 270 12 57 56 37 44 54 48 48 45 42 44 42 38 33 27 25 22 19 19 18 19 21 31 36 24 354 276 231 239 236 232 239 235 225 223 222 224 243 261 267 252 234 226 221 216 214 217 218 216 215 215 213 209 208 213 215 213 208
307 288 306 315 259 182 143 150 153 149 138 139 137 120 130 124 111 208 263 158 198 229 209 221 169 85 123 190 78 80 69 53 60 60 54 53 49 47 46 45 42 36 29 24 18 16 14 9 10 7 6 10 360 353 339 295 304 301 275 285 267 230 223 224 223 227 243 274 274 254 238 230 222 217 219 220 219 217 216 216 214 215 220 221 218 212
167 289 267 196 236 188 162 169 163 155 148 163 155 125 138 150 141 191 209 163 189 202 273 291 66 119 192 127 77 92 81 60 57 51 49 49 46 52 52 45 42 36 29 24 17 14 8 4 7 4 1 358 338 334 339 326 317 303 299 314 306 261 234 229 228 225 224 239 252 249 242 236 228 224 225 225 224 221 218 217 217 219 223 225 223 218
148 230 255 235 228 173 170 183 146 125 111 231 139 101 136 181 144 135 177 171 171 138 15 353 75 87 172 86 47 74 83 64 55 46 45 43 32 34 41 38 38 34 28 23 17 13 7 3 4 4 4 3 353 344 346 344 339 318 303 310 306 289 266 247 243 236 231 232 233 233 236 237 230 227 231 231 230 227 223 221 222 223 224 225 223 218
127 246 278 281 256 198 172 179 160 143 158 200 117 139 197 170 123 116 176 147 100 115 23 349 120 98 120 94 39 74 90 74 61 51 47 42 33 30 26 23 22 23 22 18 15 12 8 5 2 1 1 3 5 7 7 5 1 346 317 299 291 288 280 263 256 248 242 240 235 230 233 237 231 227 231 234 234 234 231 229 229 228 228 226 222 216
143 260 289 247 228 254 153 130 74 90 133 122 169 188 163 80 91 107 131 20 50 118 266 341 121 131 154 188 45 83 92 83 67 56 51 43 38 32 24 17 11 9 10 9 11 10 8 7 3 359 357 359 3 8 12 14 13 9 354 312 283 277 275 272 269 260 252 253 259 249 241 243 240 233 232 234 235 236 235 234 234 234 235 233 227 219
126 306 295 285 227 269 39 67 43 355 63 124 165 165 112 115 147 95 123 130 101 132 89 5 45 133 163 212 125 78 95 100 82 66 59 46 38 31 21 15 7 4 8 8 8 7 5 5 3 357 354 356 0 3 7 12 16 17 13 356 325 300 292 295 289 272 256 253 267 265 248 244 248 244 238 235 234 235 232 229 232 234 236 241 243 231
108 112 281 304 303 282 30 46 162 270 341 68 76 29 51 136 158 160 144 146 149 154 132 69 8 274 227 238 142 126 125 116 102 80 68 52 40 33 19 11 5 2 9 10 6 4 2 2 2 357 351 354 359 1 4 10 14 14 12 9 2 351 340 326 302 277 264 258 262 266 252 243 246 248 246 238 232 233 231 227 230 232 230 231 239 238
90 103 235 305 331 41 72 346 200 197 203 88 67 38 14 56 112 142 101 100 130 144 143 129 179 246 252 249 109 94 76 86 86 75 66 53 40 31 16 8 5 2 8 9 6 2 358 358 0 357 354 357 0 2 6 9 10 9 9 9 7 6 5 356 334 304 290 279 272 272 263 252 247 247 247 238 228 235 236 234 235 233 227 223 226 229
156 128 142 312 0 65 61 302 246 163 149 132 116 127 142 126 120 119 140 304 84 120 154 145 165 219 356 70 89 75 57 62 69 71 67 52 38 27 13 6 3 2 7 8 6 2 356 356 357 356 357 359 359 359 3 7 7 6 4 3 3 5 3 356 343 324 312 301 283 272 266 264 256 249 246 233 227 235 235 237 240 233 227 222 217 217
144 107 88 43 36 100 252 295 10 93 99 94 84 96 116 121 115 122 180 215 71 81 128 101 122 152 37 57 87 84 71 65 66 73 73 58 42 28 14 7 3 3 5 6 7 2 357 357 357 358 359 359 357 356 359 3 3 3 2 1 1 2 358 349 337 325 318 312 298 281 268 264 259 252 246 237 233 231 223 229 234 229 227 221 212 209
90 88 85 57 349 331 281 288 5 54 71 70 46 37 60 52 110 135 171 169 114 122 111 76 105 144 70 59 79 85 80 73 64 60 59 53 39 29 18 10 4 2 3 7 8 2 359 1 3 4 4 1 359 357 356 357 360 3 5 4 1 359 356 351 344 335 328 325 316 302 282 264 253 246 241 240 239 229 219 224 226 220 220 215 208 206
87 83 93 106 60 354 326 320 5 25 38 61 26 346 356 28 80 117 119 85 95 160 134 115 132 137 110 82 70 75 79 74 62 51 47 39 30 24 16 12 8 5 4 6 8 4 1 4 7 8 6 3 1 358 355 354 357 0 3 3 2 357 353 353 352 348 344 339 329 316 296 274 260 245 234 235 238 230 218 216 215 211 212 209 205 204
101 88 104 128 143 161 188 221 211 59 32 39 12 354 1 22 59 122 120 78 100 157 88 105 141 130 114 91 69 62 68 69 58 44 36 28 26 20 14 15 13 12 11 7 5 3 3 7 10 10 8 5 2 360 358 356 354 354 355 359 1 358 353 353 355 354 352 348 340 327 310 290 275 259 237 231 235 233 221 214 211 209 208 205 202 201
97 67 53 105 131 172 182 196 206 132 80 43 358 358 4 0 14 93 103 97 154 142 43 47 147 133 121 100 77 63 61 65 59 47 34 20 18 18 18 19 18 17 14 11 8 5 7 11 12 11 10 7 4 3 4 1 357 354 352 354 359 1 358 356 357 357 354 351 347 337 325 310 291 272 247 234 233 232 222 214 211 208 206 203 200 199
100 56 16 64 74 73 98 85 67 81 84 79 51 17 13 22 43 71 79 63 140 125 74 155 136 121 113 102 88 78 75 73 65 55 43 22 17 24 25 22 21 19 13 12 12 9 11 12 11 11 9 6 7 8 8 6 2 359 357 356 360 4 4 1 2 1 357 353 348 341 334 325 306 283 262 246 237 228 218 212 208 204 202 200 199 199
104 65 9 76 71 53 56 72 78 85 85 73 64 46 30 41 58 72 69 41 84 121 148 141 119 101 104 105 91 84 79 72 66 59 50 36 27 28 30 26 22 17 13 13 11 9 10 9 6 7 4 4 7 9 8 7 5 4 3 2 3 5 5 4 3 4 3 359 351 344 339 335 319 293 273 252 237 225 212 207 204 198 194 194 195 193
99 70 64 95 84 57 42 60 81 88 84 64 52 50 49 57 66 73 74 71 73 74 94 109 103 90 94 99 86 78 71 68 69 59 47 40 31 30 33 30 24 18 17 16 11 9 8 5 2 2 1 3 6 5 4 5 5 5 5 4 5 5 5 3 1 2 5 4 358 349 343 342 333 299 268 242 225 215 203 197 198 194 190 189 190 187
81 125 171 97 83 60 44 67 81 84 82 67 46 36 39 50 56 57 63 75 79 79 85 95 96 90 86 89 85 77 74 76 70 56 47 40 31 33 36 33 27 21 18 16 12 10 8 5 3 2 2 3 3 3 2 1 3 6 7 7 7 6 7 6 4 3 4 4 3 359 351 348 342 303 260 234 213 203 195 191 192 192 189 186 187 187
74 129 175 71 85 96 94 98 97 92 84 68 46 35 34 39 48 45 39 52 84 113 114 100 94 106 115 107 96 81 72 69 60 51 51 41 29 35 38 33 28 22 17 13 8 6 7 5 3 2 1 0 1 3 2 360 1 4 6 7 8 9 12 12 10 7 5 4 6 7 4 358 349 314 261 237 216 201 194 189 187 187 186 184 185 187
101 129 147 101 100 137 177 153 102 91 86 64 36 39 47 62 80 65 40 34 43 103 126 110 113 130 128 122 106 85 68 60 53 47 46 35 29 36 36 29 23 18 15 10 5 5 7 6 5 4 3 2 3 4 4 2 3 3 3 5 8 12 15 15 13 10 8 7 7 9 11 9 2 343 272 235 219 204 195 188 182 182 183 182 183 183
103 119 133 111 105 149 204 293 352 42 96 67 345 356 69 100 91 79 60 46 48 62 85 94 105 115 116 115 106 93 81 71 64 57 47 35 32 35 34 29 23 18 13 10 10 8 6 8 9 9 9 9 7 7 8 9 8 7 7 8 11 15 17 16 15 12 10 9 9 10 14 16 14 7 336 235 214 203 195 186 178 178 180 181 180 177
109 99 98 76 93 137 171 14 50 115 163 61 55 71 96 103 96 88 74 58 62 80 93 99 106 113 109 107 108 105 100 94 80 64 49 37 34 36 33 27 22 18 14 13 15 10 6 8 9 10 13 14 13 14 14 13 12 12 13 14 14 17 19 19 17 14 12 11 11 12 16 20 20 16 13 356 217 200 188 176 169 172 175 175 173 169
124 110 95 65 66 116 96 38 108 142 119 102 99 104 115 112 98 87 66 44 46 75 106 114 115 119 117 114 114 113 111 104 82 59 41 32 33 36 33 26 19 14 11 12 11 5 4 8 10 12 16 19 22 22 19 18 19 17 17 18 18 18 21 22 20 16 14 12 12 12 15 23 26 22 23 34 40 140 163 157 157 161 162 160 159 157
119 120 108 63 33 110 103 74 99 120 136 145 151 163 160 217 223 118 88 55 29 38 113 129 127 127 128 125 127 135 136 111 76 50 32 29 33 35 36 31 22 15 13 13 12 9 10 14 16 17 18 22 26 26 24 25 26 24 22 22 21 21 23 23 21 18 15 13 13 13 15 24 34 31 27 40 48 32 81 135 142 147 149 146 143 142
89 120 138 116 49 90 104 102 117 146 191 180 169 160 12 295 217 134 107 107 27 13 104 140 138 135 138 141 152 167 166 85 65 52 25 19 19 23 27 25 21 21 19 16 15 14 16 18 19 17 18 22 24 25 26 28 29 29 27 24 22 23 24 23 20 19 18 16 16 17 18 25 40 43 35 37 48 42 41 99 122 130 135 134 129 125
60 67 100 99 90 112 114 120 149 191 227 146 150 199 329 314 200 122 87 118 82 16 57 138 145 149 155 162 173 187 198 67 94 93 37 20 19 22 25 23 24 26 28 27 23 18 17 21 22 21 22 23 21 23 28 30 30 31 29 26 25 26 26 23 20 20 22 22 23 24 25 27 40 52 47 39 44 50 49 73 101 115 120 120 115 111
45 32 57 91 108 109 101 105 128 150 255 271 179 277 307 306 232 111 60 190 138 45 50 111 136 153 165 169 175 202 254 122 137 132 86 63 48 40 36 31 29 29 30 31 31 29 26 27 25 24 24 23 21 25 30 32 32 31 28 26 27 27 26 24 24 25 27 29 31 31 31 31 37 52 58 51 47 49 53 67 88 101 106 106 103 102
35 26 58 105 108 86 86 98 96 105 249 252 278 293 300 306 158 146 186 173 121 83 73 92 106 119 144 148 145 122 69 99 119 123 107 89 66 48 44 46 46 42 36 32 31 31 30 29 28 27 26 24 23 25 29 31 32 29 26 26 24 24 25 26 28 31 31 33 36 36 36 36 38 48 61 64 59 52 51 62 78 88 94 95 95 95
57 42 36 80 100 90 92 99 97 126 167 99 319 312 325 46 177 184 141 118 105 96 90 92 98 104 106 105 106 105 99 100 108 113 100 86 74 54 49 53 56 52 46 40 35 31 27 25 26 27 26 25 24 22 22 25 27 25 23 22 21 21 25 27 28 32 34 35 37 37 38 40 42 47 56 67 71 66 59 61 73 82 86 87 87 87
95 93 63 87 114 88 74 83 128 152 143 336 270 320 350 79 162 138 108 101 99 98 95 92 93 101 108 107 107 110 111 110 110 112 105 94 86 72 61 58 56 50 47 43 36 32 30 27 26 25 25 25 25 24 21 20 20 18 18 19 19 20 22 23 25 29 35 38 39 38 37 40 45 49 54 63 74 80 77 71 72 80 85 86 84 84
22 110 141 164 179 106 109 131 151 89 330 307 161 133 72 96 129 129 118 107 100 99 98 96 97 105 114 118 119 119 120 122 125 122 116 102 86 74 65 58 50 44 41 37 33 33 35 33 30 30 29 26 27 29 29 25 19 14 12 15 19 19 18 19 21 27 33 38 41 41 40 40 44 50 55 61 71 80 85 84 79 78 81 84 85 83
67 114 115 104 83 84 106 114 85 57 41 58 91 106 105 101 106 114 116 113 111 113 115 114 115 116 120 124 127 127 127 129 132 131 124 116 103 88 77 69 58 44 35 30 28 28 32 35 34 34 33 32 34 35 33 30 25 16 12 16 20 21 21 21 21 24 29 35 39 42 43 43 45 48 53 59 66 72 78 85 86 83 81 83 84 83
110 100 91 100 106 92 73 74 86 84 77 78 84 92 99 101 104 109 109 111 116 116 114 116 120 120 119 119 120 122 127 132 132 128 122 123 130 128 112 87 50 31 24 20 17 15 20 29 31 31 33 35 38 39 36 34 31 22 16 17 18 18 21 24 23 23 25 32 36 38 43 46 48 48 50 55 62 68 73 79 84 86 84 82 79 79
9 36 80 112 133 115 83 96 104 94 90 94 94 95 97 99 102 106 108 113 117 112 110 115 120 122 124 125 127 130 135 134 127 122 125 145 177 196 195 355 351 353 351 349 353 357 3 11 16 18 23 28 33 36 36 35 31 23 18 17 16 17 19 21 22 22 24 28 32 35 40 46 49 51 53 56 59 63 68 72 80 86 89 88 85 82
38 86 93 91 87 85 100 113 104 90 89 92 92 102 110 108 108 109 109 114 116 116 124 131 132 131 130 128 131 134 136 140 141 144 163 197 218 247 291 317 325 330 333 335 339 345 349 350 350 352 360 13 23 26 26 28 27 22 22 23 22 20 20 19 22 25 26 27 28 32 38 45 50 52 55 59 62 63 63 64 68 73 76 82 89 94
114 97 108 109 99 92 98 110 106 96 89 77 80 104 116 114 116 112 106 111 115 118 123 125 126 132 137 138 138 133 135 159 165 160 174 214 239 264 291 310 318 320 325 332 336 336 335 334 335 337 341 350 3 11 12 15 18 19 22 24 22 21 23 27 29 31 30 30 32 34 34 40 50 55 57 60 64 68 70 70 70 70 69 69 71 77
96 107 124 122 118 120 137 141 134 122 118 126 133 128 121 119 119 114 112 117 123 127 124 107 101 115 131 143 147 142 146 182 187 177 189 221 245 269 292 312 323 328 331 334 333 329 326 325 326 327 330 337 347 355 359 2 6 15 22 22 21 23 29 35 37 37 38 37 39 42 42 36 42 54 62 66 69 72 76 79 81 85 86 83 78 74
118 145 151 129 120 135 150 152 144 120 128 148 151 135 130 130 123 122 129 133 134 142 141 126 114 117 127 150 162 160 161 174 184 192 207 227 247 271 295 310 317 323 327 327 323 321 321 321 320 319 321 330 341 344 347 351 355 4 16 20 24 30 34 36 36 38 42 43 43 47 50 45 38 40 50 66 79 84 86 87 86 87 91 96 98 100